sat.trackr.live / text

‹ back to catalog

STARLINK-30862

NORAD 59032 · 2024-038K

PAYLOAD ACTIVE UNKNOWN

§ Identity

Operator
Country
US
Launch date
2024-02-25
Launch site
AFETR
Launch vehicle
Mass (kg)
RCS (m²)

Purposes: comms

External: N2YO · Heavens-Above · Gunter

§ Orbital elements

Epoch: 2026-05-24T20:41:41.307360Z

Period
94.27 min
Inclination
43.0040°
Eccentricity
0.0001106
Mean motion
15.27569119 rev/d
Perigee alt
482.3 km
Apogee alt
483.8 km
Semi-major
6,861.2 km
B*
5.3258e-5
RAAN
305.9940°
Arg perigee
267.9081°
Mean anomaly
92.1644°
Rev number
12,642

§ Raw data

STARLINK-308621 59032U 24038K   26144.86228365  .00001203  00000+0  53258-4 0  99952 59032  43.0040 305.9940 0001106 267.9081  92.1644 15.27569119126420

JSON: /api/v1/satellites/59032 · /tle

For live sub-satellite position, see the globe view (requires WebGL).

§ Visibility from observer

Set your observer location to see the next 7 days of passes ≥ 10°. The values pass through the URL so the page stays shareable.

No JS? Fill the form by hand. The geolocation button needs JavaScript.